Tracking 30696 objects as of 15-Jun-2025
HD Live streaming from Space Station
objects crossing your sky now

TITAN 3C TRANSTAGE DEB

Track TITAN 3C TRANSTAGE DEB now!


NORAD ID: 34168
Int'l Code: 1965-108DB
Perigee: 1,064.2 km
Apogee: 30,470.1 km
Inclination: 27.7 °
Period: 546.4 minutes
Semi major axis: 22138 km
RCS: 0.0298 m2 (small)
Launch date: December 21, 1965
Source: United States (US)
Launch site: AIR FORCE EASTERN TEST RANGE (AFETR)

Note: This is SATELLITE DEBRIS
Your satellite tracking list
Your tracking list is empty




NASA's NSSDC Master Catalog

Two Line Element Set (TLE):
1 34168U 65108DB  25164.13732582 -.00000019  00000-0  00000-0 0  9992
2 34168  27.6980  86.5669 6641472 139.5850 359.2333  2.63566944189288
Source of the keplerian elements: AFSPC